EWG7XA EDDK-LIRP

Flight info

Callsign EWG7XA
Flight time N/A
Altitude 37000
Route KUMIK Y854 BOMBI DCT GIGET DCT ABUKA DCT BATUB DCT TIRUL M738 NATAG DCT LORLO DCT ATPED DCT LEGLO DCT VOG DCT UNITA DCT TIDKA L50 KONER
Aircraft A320/M-SDE2E3FGIJ1RWXYZ/HB1

Departure

Time N/A
Airport Cologne Bonn Airport (EDDK)

Arrival

Time 2026-05-04 12:45
Airport Pisa International Airport (LIRP)
Time Latitude Longitude Altitude Speed Heading
2026-05-04 12:16 43.53528 9.18843 35613 ft 381 kts 358°
2026-05-04 12:16 43.56153 9.19552 35218 ft 390 kts 15°
2026-05-04 12:16 43.58576 9.21263 34832 ft 396 kts 32°
2026-05-04 12:16 43.60558 9.23837 34446 ft 400 kts 50°
2026-05-04 12:17 43.61978 9.27132 34076 ft 400 kts 68°
2026-05-04 12:17 43.62677 9.30831 33651 ft 397 kts 85°
2026-05-04 12:17 43.62606 9.34600 33253 ft 391 kts 103°
2026-05-04 12:17 43.61808 9.38133 32855 ft 382 kts 120°
2026-05-04 12:18 43.60392 9.41169 32551 ft 372 kts 136°
2026-05-04 12:18 43.58604 9.43728 32167 ft 368 kts 141°
2026-05-04 12:18 43.56735 9.46051 31792 ft 363 kts 144°
2026-05-04 12:18 43.54799 9.48266 31400 ft 360 kts 146°
2026-05-04 12:19 43.52853 9.50422 31039 ft 358 kts 146°
2026-05-04 12:19 43.50918 9.52570 30695 ft 355 kts 146°
2026-05-04 12:19 43.48882 9.54416 30362 ft 344 kts 162°
2026-05-04 12:19 43.46633 9.55289 29989 ft 331 kts 180°
2026-05-04 12:20 43.44382 9.55165 29576 ft 319 kts 197°
2026-05-04 12:20 43.42363 9.54164 29151 ft 308 kts 214°
2026-05-04 12:20 43.40680 9.52429 28741 ft 300 kts 230°
2026-05-04 12:20 43.39457 9.50149 28336 ft 294 kts 245°
2026-05-04 12:21 43.38760 9.47536 27938 ft 290 kts 259°
2026-05-04 12:21 43.38612 9.44777 27557 ft 290 kts 273°
2026-05-04 12:21 43.39018 9.42069 27175 ft 291 kts 288°
2026-05-04 12:21 43.39963 9.39602 26797 ft 294 kts 303°
2026-05-04 12:22 43.41339 9.37506 26414 ft 297 kts 312°
2026-05-04 12:22 43.42849 9.35616 26052 ft 297 kts 315°
2026-05-04 12:22 43.44435 9.33787 25702 ft 296 kts 316°
2026-05-04 12:22 43.46032 9.31998 25361 ft 296 kts 316°
2026-05-04 12:23 43.47629 9.30209 25016 ft 295 kts 316°
2026-05-04 12:23 43.49239 9.28449 24687 ft 295 kts 322°
2026-05-04 12:23 43.51065 9.27195 24377 ft 300 kts 338°
2026-05-04 12:23 43.53130 9.26670 24057 ft 305 kts 355°
2026-05-04 12:24 43.55246 9.26994 23753 ft 309 kts 13°
2026-05-04 12:24 43.57216 9.28185 23411 ft 311 kts 31°
2026-05-04 12:24 43.58857 9.30215 22644 ft 326 kts 54°
2026-05-04 12:24 43.59886 9.33120 22329 ft 354 kts 77°
2026-05-04 12:25 43.60026 9.36591 22056 ft 371 kts 103°
2026-05-04 12:25 43.59071 9.39859 21792 ft 368 kts 129°
2026-05-04 12:25 43.57418 9.42537 21540 ft 367 kts 135°
2026-05-04 12:25 43.55735 9.45191 21278 ft 369 kts 130°
2026-05-04 12:26 43.54459 9.48206 21019 ft 372 kts 115°
2026-05-04 12:26 43.53747 9.51633 20762 ft 375 kts 100°
2026-05-04 12:26 43.53698 9.55231 20527 ft 376 kts 84°
2026-05-04 12:26 43.54314 9.58742 20287 ft 377 kts 69°
2026-05-04 12:27 43.55057 9.60900 20098 ft 376 kts 59°
2026-05-04 12:27 43.57009 9.64845 19790 ft 375 kts 62°
2026-05-04 12:27 43.57739 9.68247 19546 ft 369 kts 89°
2026-05-04 12:27 43.57442 9.71725 19316 ft 364 kts 107°
2026-05-04 12:28 43.57019 9.73966 19165 ft 365 kts 106°
2026-05-04 12:28 43.56468 9.77374 18928 ft 364 kts 104°
2026-05-04 12:28 43.55993 9.80798 18697 ft 363 kts 103°
2026-05-04 12:28 43.55557 9.84235 18459 ft 362 kts 102°
2026-05-04 12:29 43.55130 9.87659 18203 ft 362 kts 102°
2026-05-04 12:29 43.54698 9.91071 17937 ft 360 kts 102°
2026-05-04 12:29 43.54261 9.94417 17673 ft 358 kts 102°
2026-05-04 12:29 43.53811 9.97778 17413 ft 356 kts 103°
2026-05-04 12:30 43.53355 10.01122 17156 ft 354 kts 103°
2026-05-04 12:30 43.52894 10.04446 16892 ft 352 kts 103°
2026-05-04 12:30 43.52434 10.07746 16645 ft 350 kts 103°
2026-05-04 12:30 43.51978 10.11033 16400 ft 348 kts 103°
2026-05-04 12:31 43.51533 10.14260 16145 ft 346 kts 103°
2026-05-04 12:31 43.51080 10.17517 15893 ft 344 kts 103°
2026-05-04 12:31 43.50632 10.20732 15603 ft 340 kts 104°
2026-05-04 12:31 43.50189 10.23913 15361 ft 333 kts 104°
2026-05-04 12:32 43.49625 10.27977 15217 ft 320 kts 104°
2026-05-04 12:32 43.49038 10.32935 14993 ft 308 kts 92°
2026-05-04 12:32 43.49433 10.35773 14861 ft 306 kts 69°
2026-05-04 12:33 43.50589 10.38250 14392 ft 315 kts 45°
2026-05-04 12:33 43.52323 10.40134 13881 ft 316 kts 37°
2026-05-04 12:33 43.54081 10.41914 13380 ft 310 kts 38°
2026-05-04 12:33 43.55795 10.43657 12924 ft 302 kts 39°
2026-05-04 12:34 43.57463 10.45363 12491 ft 295 kts 39°
2026-05-04 12:34 43.59092 10.47036 12058 ft 288 kts 39°
2026-05-04 12:34 43.60679 10.48672 11674 ft 282 kts 39°
2026-05-04 12:34 43.62215 10.50259 11282 ft 275 kts 39°
2026-05-04 12:35 43.63730 10.51827 10874 ft 269 kts 39°
2026-05-04 12:35 43.65217 10.53365 10377 ft 267 kts 39°
2026-05-04 12:35 43.66701 10.54901 9926 ft 264 kts 40°
2026-05-04 12:35 43.68153 10.56406 9506 ft 258 kts 40°
2026-05-04 12:36 43.69555 10.57859 9122 ft 252 kts 40°
2026-05-04 12:36 43.70945 10.59303 8756 ft 248 kts 40°
2026-05-04 12:36 43.72311 10.60723 8389 ft 243 kts 40°
2026-05-04 12:36 43.73655 10.62117 8033 ft 239 kts 39°
2026-05-04 12:37 43.74980 10.63493 7684 ft 236 kts 39°
2026-05-04 12:37 43.76285 10.64850 7320 ft 233 kts 39°
2026-05-04 12:37 43.77582 10.66168 6975 ft 231 kts 33°
2026-05-04 12:37 43.79096 10.66861 6626 ft 231 kts
2026-05-04 12:38 43.80633 10.66501 6268 ft 227 kts 334°
2026-05-04 12:38 43.81876 10.65221 5903 ft 222 kts 310°
2026-05-04 12:38 43.82920 10.63658 5547 ft 219 kts 311°
2026-05-04 12:38 43.83960 10.62115 5203 ft 218 kts 311°
2026-05-04 12:39 43.84991 10.60590 4881 ft 213 kts 311°
2026-05-04 12:39 43.85958 10.59136 4517 ft 203 kts 306°
2026-05-04 12:39 43.86554 10.57441 4197 ft 192 kts 280°
2026-05-04 12:39 43.86586 10.55646 3902 ft 183 kts 257°
2026-05-04 12:40 43.86127 10.54083 3824 ft 169 kts 234°
2026-05-04 12:40 43.85409 10.52825 3762 ft 166 kts 227°
2026-05-04 12:40 43.84679 10.51583 3695 ft 166 kts 229°
2026-05-04 12:40 43.83940 10.50378 3614 ft 165 kts 222°
2026-05-04 12:41 43.82989 10.49476 3447 ft 167 kts 204°
2026-05-04 12:41 43.81929 10.48815 3160 ft 167 kts 203°
2026-05-04 12:41 43.80874 10.48151 2900 ft 166 kts 203°
2026-05-04 12:41 43.79814 10.47486 2629 ft 169 kts 202°
2026-05-04 12:42 43.78766 10.46827 2385 ft 165 kts 203°
2026-05-04 12:42 43.77749 10.46185 2110 ft 156 kts 203°
2026-05-04 12:42 43.76800 10.45585 1857 ft 145 kts 203°
2026-05-04 12:42 43.75899 10.45030 1589 ft 137 kts 202°
2026-05-04 12:43 43.75023 10.44539 1438 ft 135 kts 200°
2026-05-04 12:43 43.74167 10.44063 1269 ft 130 kts 199°
2026-05-04 12:43 43.73352 10.43564 1061 ft 127 kts 203°
2026-05-04 12:43 43.72547 10.43073 813 ft 128 kts 199°
2026-05-04 12:44 43.71731 10.42568 643 ft 131 kts 203°
2026-05-04 12:44 43.70934 10.42020 483 ft 127 kts 207°
2026-05-04 12:44 43.70205 10.41317 295 ft 125 kts 215°
2026-05-04 12:44 43.69494 10.40577 100 ft 127 kts 215°
2026-05-04 12:45 43.68820 10.39884 22 ft 111 kts 216°
2026-05-04 12:45 43.68332 10.39382 19 ft 64 kts 217°
2026-05-04 12:45 43.68052 10.39092 16 ft 44 kts 216°
2026-05-04 12:45 43.67821 10.38854 17 ft 39 kts 217°
2026-05-04 12:46 43.67614 10.38641 20 ft 36 kts 216°
2026-05-04 12:46 43.67537 10.38496 17 ft 16 kts 294°
2026-05-04 12:46 43.67613 10.38357 13 ft 20 kts 308°
2026-05-04 12:46 43.67701 10.38199 15 ft 22 kts 307°
2026-05-04 12:47 43.67829 10.38146 15 ft 21 kts 20°
2026-05-04 12:47 43.67947 10.38247 15 ft 19 kts 39°
2026-05-04 12:47 43.68053 10.38359 15 ft 19 kts 37°
2026-05-04 12:47 43.68155 10.38464 15 ft 18 kts 38°
2026-05-04 12:48 43.68251 10.38562 16 ft 17 kts 36°
2026-05-04 12:48 43.68341 10.38656 15 ft 16 kts 37°
2026-05-04 12:48 43.68349 10.38735 16 ft 6 kts 133°
2026-05-04 12:48 43.68304 10.38815 15 ft 14 kts 126°
2026-05-04 12:49 43.68253 10.38946 14 ft 17 kts 86°
2026-05-04 12:49 43.68332 10.39052 15 ft 17 kts 38°
2026-05-04 12:49 43.68491 10.39217 19 ft 34 kts 36°
2026-05-04 12:49 43.68687 10.39417 17 ft 36 kts 37°
2026-05-04 12:50 43.68893 10.39631 18 ft 38 kts 36°
2026-05-04 12:50 43.69101 10.39842 22 ft 31 kts 36°
2026-05-04 12:50 43.69231 10.39913 22 ft 18 kts 358°
2026-05-04 12:50 43.69370 10.39893 16 ft 21 kts 353°
2026-05-04 12:51 43.69464 10.39849 16 ft 13 kts 298°
2026-05-04 12:51 43.69515 10.39770 15 ft 12 kts 359°
2026-05-04 12:51 43.69595 10.39788 15 ft 11 kts
2026-05-04 12:51 43.69672 10.39804 15 ft 11 kts 11°
2026-05-04 12:52 43.69700 10.39878 18 ft 9 kts 94°
2026-05-04 12:52 43.69695 10.39935 15 ft 5 kts 98°
2026-05-04 12:52 43.69706 10.39962 17 ft 3 kts 14°
2026-05-04 12:52 43.69732 10.39968 15 ft 5 kts
2026-05-04 12:53 43.69762 10.39975 15 ft 3 kts
2026-05-04 12:53 43.69766 10.39976 15 ft 0 kts